Tracking 19908 objects as of 19-Oct-2019
HD Live streaming from Space Station
objects crossing your sky now

NOAA 16 DEB

Track NOAA 16 DEB now!
10-day predictions


NORAD ID: 41140
Int'l Code: 2000-055BX
Perigee: 763.8 km
Apogee: 858.1 km
Inclination: 98.8 °
Period: 101.0 minutes
Semi major axis: 7181 km
RCS: Unknown
Launch date: September 21, 2000
Source: United States (US)
Launch site: AIR FORCE WESTERN TEST RANGE (AFWTR)

Note: This is SATELLITE DEBRIS
aabbcc
Your satellite tracking list
Your tracking list is empty




NASA's NSSDC Master Catalog

Two Line Element Set (TLE):
1 41140U 00055BX  19291.22648180 +.00000896 +00000-0 +38280-3 0  9990
2 41140 098.7980 024.4412 0065665 281.3284 078.0523 14.26403126202330
Source of the keplerian elements: AFSPC